Regional Weather Roundup
Issued by NWS Glasgow, MT

Home | Current Version | Previous Version | Text Only | Print | Product List | Glossary On
Versions: 1 2 3 4 5 6 7 8 9 10 11 12 13 14 15 16 17 18 19 20 21 22 23 24 25 26 27 28 29 30 31 32 33 34 35 36 37 38 39 40 41 42 43 44 45 46 47 48 49 50
000
ASUS45 KGGW 011115
RWRGGW
HOURLY WEATHER ROUNDUP FOR NORTHEAST MONTANA
NATIONAL WEATHER SERVICE GLASGOW MONTANA
500 AM MDT FRI AUG 01 2014

NOTE: "FAIR" INDICATES FEW OR NO CLOUDS BELOW 12,000 FEET WITH NO
SIGNIFICANT WEATHER AND/OR OBSTRUCTIONS TO VISISBILITY.

NORTHEAST MONTANA


CITY           SKY/WX    TMP DP  RH WIND       PRES   REMARKS
GLASGOW        PTCLDY    66  57  72 E5        30.02S
PLENTYWOOD       N/A     64  55  72 N8          N/A
WOLF POINT     CLOUDY    70  57  63 NE13      30.02R
JORDAN           N/A     61  42  49 NW8       30.04F
WINNETT          N/A     55  45  68 S3          N/A
SIDNEY         PTCLDY    57  54  88 N8        30.02S
GLENDIVE       CLOUDY    64  52  63 NE6       30.02S
MALTA            N/A    N/A N/A N/A N2          N/A

FORT PECK REPORTS


CITY           SKY/WX    TMP DP  RH WIND       PRES   REMARKS
FORT PECK        N/A     69  56  62 NE10        N/A
THE PINES        N/A     68  55  63 NE7         N/A

SOUTHEAST MONTANA


CITY           SKY/WX    TMP DP  RH WIND       PRES   REMARKS
BILLINGS       MOCLDY    65  43  44 SW9       30.13R
MILES CITY     PTCLDY    60  44  55 W7        30.01S
BAKER          MOCLDY    55  48  77 SE5       30.05F
LIVINGSTON     CLEAR     53  40  61 CALM      30.21S

CENTRAL MONTANA


CITY           SKY/WX    TMP DP  RH WIND       PRES   REMARKS
HAVRE          CLEAR     58  47  66 E3        30.08S
LEWISTOWN      CLEAR     56  43  61 SE8       30.17R
GREAT FALLS    CLEAR     53  44  71 W9        30.14R
CUT BANK       PTCLDY    56  53  90 W9        30.18S
HELENA         CLEAR     61  41  47 CALM      30.17S
BUTTE          PTCLDY    51  39  63 S3        30.28S
BOZEMAN        CLEAR     50  43  77 CALM      30.21R

WESTERN MONTANA


CITY           SKY/WX    TMP DP  RH WIND       PRES   REMARKS
MISSOULA       PTCLDY    59  43  55 CALM      30.14R
KALISPELL      NOT AVBL

NORTH DAKOTA


CITY           SKY/WX    TMP DP  RH WIND       PRES   REMARKS
WILLISTON      PTCLDY    66  57  72 VRB3      30.03F
DICKINSON      CLEAR     57  53  86 S8        30.03F
MINOT          CLEAR     56  54  93 CALM      30.06S
BISMARCK       CLEAR     58  55  90 NE7       30.07S

SOUTHERN SASKATCHEWAN


CITY           SKY/WX    TMP DP  RH WIND       PRES   REMARKS
REGINA         MOCLDY    61  57  88 E10       30.08S
MOOSE JAW      MOCLDY    61  59  94 E6        30.04F
ESTEVAN        MOCLDY    57  55  94 E2        30.09R
SWIFT CURRENT  CLEAR     57  52  82 W3        30.09R




USA.gov is the U.S. government's official web portal to all federal, state and local government web resources and services.